Location: Landeleau
(48.2273°N, 3.7285°W)
Time: 08:56:51
(UTC+00:00)

Cosmos 2218 Rocket - Pass Details

Date: 30 March 2020
Orbit: 957 x 1005 km, 82.9° (Epoch: 24 May)

Event Time Altitude Azimuth Distance (km) Brightness Sun altitude
Rises 21:40:09 0° 353° (N) 3,653 7.7 -27.1°
Reaches altitude 10° 21:42:41 10° 356° (N) 2,706 6.9 -27.4°
Enters shadow 21:48:38 62° 68° (ENE) 1,081 4.0 -28.1°
